Flag for Cambodia Weather past 2 weeks in Battambang, Cambodia

Now
93 °F

Broken clouds.


Feels Like: 96 °F
Forecast: 73 / 97 °F
Wind: 6 mph from Southwest

Location: Siemreap

Current Time: Mar 29, 2015 at 3:22:05 PM

Latest Report: Mar 29, 2015 at 3:00 PM


Visibility: N/A

Pressure: 29.74 "Hg

Humidity: 41%

Dew point: 66 °F

Location of BattambangLocation

Historic Weather in Battambang — Graph

°F

Battambang temperature yesterday

Maximum temperature yesterday: 95 °F (at 1:00 PM)
Minimum temperature yesterday: 81 °F (at 12:00 AM)
Average temperature yesterday: 87 °F

Past Weeks' High & Low Weather Summary

 TemperatureHumidityPressure
High97 °F (Mar 16, 4:00 PM)100% (Mar 19, 7:00 AM)29.98 "Hg (Mar 19, 7:00 AM)
Low77 °F (Mar 15, 7:00 AM)34% (Mar 26, 3:30 PM)29.68 "Hg (Mar 17, 4:00 PM)
Average87 °F64%29.84 "Hg
* Reported Mar 14 2:00 PM — Mar 29 2:00 PM, Battambang, Weather by CustomWeather, © 2015

Note: Actual official high and low records may vary slightly from our data, if they occured in-between our weather recording intervals... More about our weather records

Advertising

Battambang weather history for previous 24 hours

 ConditionsComfort  
Time TempWeatherWind HumidityBarometerVisibility
2:00 PM
Sun, Mar 29
95 °FBroken clouds.7 mph41%29.77 "HgN/A
1:30 PM93 °FBroken clouds.6 mph44%29.80 "HgN/A
1:00 PM93 °FBroken clouds.6 mph44%29.83 "HgN/A
12:30 PM93 °FBroken clouds.6 mph44%29.83 "HgN/A
12:00 PM91 °FBroken clouds.5 mph46%29.86 "HgN/A
11:30 AM91 °FBroken clouds.6 mph49%29.86 "HgN/A
11:00 AM90 °FBroken clouds.6 mph52%29.89 "HgN/A
10:30 AM90 °FScattered clouds.6 mph52%29.89 "HgN/A
10:00 AM88 °FScattered clouds.6 mph59%29.89 "HgN/A
9:30 AM86 °FScattered clouds.3 mph62%29.92 "HgN/A
9:00 AM84 °FPartly sunny.5 mph70%29.92 "HgN/A
8:30 AM84 °FPartly sunny.6 mph66%29.89 "Hg6 mi
8:00 AM82 °FPartly sunny.1 mph70%29.89 "Hg6 mi
7:30 AM81 °FPartly sunny.1 mph79%29.89 "Hg6 mi
7:00 AM79 °FPartly sunny.No wind89%29.86 "Hg6 mi
1:00 AM81 °FPassing clouds.5 mph79%29.80 "Hg6 mi
12:00 AM81 °FPassing clouds.3 mph79%29.83 "Hg6 mi
11:00 PM
Sat, Mar 28
81 °FPassing clouds.2 mph74%29.83 "Hg6 mi
10:30 PM82 °FPassing clouds.6 mph70%29.83 "Hg6 mi
10:00 PM84 °FPassing clouds.6 mph74%29.86 "Hg6 mi
9:30 PM84 °FPassing clouds.1 mph79%29.83 "Hg6 mi
9:00 PM84 °FPassing clouds.1 mph74%29.83 "Hg6 mi
8:30 PM86 °FPassing clouds.No wind70%29.83 "Hg6 mi
8:00 PM86 °FPassing clouds.1 mph66%29.80 "HgN/A
7:30 PM86 °FPassing clouds.2 mph66%29.77 "HgN/A
7:00 PM88 °FPassing clouds.2 mph62%29.77 "HgN/A
6:30 PM88 °FPassing clouds.3 mph62%29.77 "HgN/A
6:00 PM90 °FPassing clouds.5 mph52%29.77 "HgN/A
5:30 PM90 °FPassing clouds.6 mph52%29.74 "HgN/A
5:00 PM91 °FPassing clouds.8 mph49%29.74 "HgN/A
4:30 PM91 °FPassing clouds.9 mph49%29.74 "HgN/A
4:00 PM93 °FScattered clouds.9 mph44%29.77 "HgN/A
3:30 PM93 °FScattered clouds.10 mph47%29.77 "HgN/A
3:00 PM93 °FScattered clouds.10 mph47%29.77 "HgN/A
Weather by CustomWeather, © 2015

See weather overviewHow to use our weather pages